Glencoe, MN

10:05 PM CDT on May 27, 2017 (GMT -0500)
Glencoe Municipal

Weather History for KGYL - August, 2014

Change the Weather History Date:

Tuesday, August 12, 2014

  Actual Average (KHCD) Record (KHCD)
Temperature  
Mean Temperature 66 °F -  
Max Temperature 78 °F 81 °F 98 °F (1965)
Min Temperature 55 °F 59 °F 41 °F (2004)
Cooling Degree Days 1    
Growing Degree Days 16 (Base 50)    
Moisture  
Dew Point 52 °F    
Average Humidity 62    
Maximum Humidity 87    
Minimum Humidity 33    
Precipitation  
Precipitation 0.00 in - - ()
Sea Level Pressure  
Sea Level Pressure 30.06 in    
Wind  
Wind Speed 5 mph (NW)    
Max Wind Speed 15 mph    
Max Gust Speed 20 mph    
Visibility 10 miles    
Events      
Averages and records for this station are not official NWS values.
T = Trace of Precipitation, MM = Missing Value Source: NWS Daily Summary

Daily Weather History Graph

Daily Weather History Graph

Search for Another Location

Airport or City:

Trip Planner

Search our weather history database for the weather conditions in past years. The results will help you decide how hot, cold, wet, or windy it might be!

Date:

Astronomy

Aug. 12, 2014 Rise Set
Actual Time 6:15 AM CDT 8:26 PM CDT
Civil Twilight 5:42 AM CDT 8:58 PM CDT
Nautical Twilight 5:03 AM CDT 9:38 PM CDT
Astronomical Twilight 4:18 AM CDT 10:22 PM CDT
Moon 9:25 PM CDT (8/12) 8:41 AM CDT (8/12)
Length of Visible Light 15h 15m
Length of Day
14h 11m
Waning Gibbous, 94% of the Moon is Illuminated
Aug 12
Waning Gibbous
Aug 17
Last Quarter
Aug 25
New
Sep 2
First Quarter
Sep 8
Full

Hourly Weather History & Observations

Time (CDT) Temp. Dew Point Humidity Pressure Visibility Wind Dir Wind Speed Gust Speed Precip Events Conditions
12:33 AM 61.9 °F 52.3 °F 71% 30.07 in 10.0 mi Calm Calm - N/A   Clear
12:54 AM 60.8 °F 52.3 °F 74% 30.07 in 10.0 mi NW 3.5 mph - N/A   Clear
1:13 AM 60.1 °F 52.3 °F 76% 30.07 in 10.0 mi NW 3.5 mph - N/A   Clear
1:33 AM 59.2 °F 52.5 °F 79% 30.07 in 10.0 mi NW 4.6 mph - N/A   Clear
1:54 AM 58.6 °F 52.3 °F 80% 30.07 in 10.0 mi NW 4.6 mph - N/A   Clear
2:13 AM 58.1 °F 52.3 °F 81% 30.07 in 10.0 mi NW 4.6 mph - N/A   Clear
2:34 AM 58.1 °F 52.3 °F 81% 30.07 in 10.0 mi NW 4.6 mph - N/A   Clear
2:54 AM 57.6 °F 52.2 °F 82% 30.07 in 10.0 mi NW 4.6 mph - N/A   Clear
3:13 AM 57.2 °F 52.3 °F 84% 30.06 in 10.0 mi NW 4.6 mph - N/A   Clear
3:34 AM 57.4 °F 52.7 °F 84% 30.06 in 10.0 mi NW 4.6 mph - N/A   Clear
3:53 AM 57.4 °F 52.7 °F 84% 30.06 in 10.0 mi NW 4.6 mph - N/A   Clear
4:34 AM 57.4 °F 52.5 °F 84% 30.07 in 10.0 mi NW 4.6 mph - N/A   Clear
4:53 AM 57.0 °F 52.2 °F 84% 30.07 in 10.0 mi NW 4.6 mph - N/A   Clear
5:13 AM 56.7 °F 52.2 °F 85% 30.07 in 10.0 mi NW 3.5 mph - N/A   Clear
5:34 AM 56.3 °F 51.8 °F 85% 30.07 in 10.0 mi NW 4.6 mph - N/A   Clear
5:54 AM 56.3 °F 51.8 °F 85% 30.07 in 10.0 mi NW 4.6 mph - N/A   Clear
6:13 AM 55.6 °F 51.4 °F 86% 30.08 in 10.0 mi NW 4.6 mph - N/A   Clear
6:34 AM 55.4 °F 51.6 °F 87% 30.09 in 10.0 mi WNW 5.8 mph - N/A   Clear
6:54 AM 56.5 °F 51.8 °F 84% 30.09 in 10.0 mi WNW 5.8 mph - N/A   Clear
7:13 AM 57.2 °F 52.3 °F 84% 30.09 in 10.0 mi WNW 5.8 mph - N/A   Clear
7:34 AM 58.1 °F 53.1 °F 83% 30.10 in 10.0 mi WNW 5.8 mph - N/A   Clear
7:54 AM 59.5 °F 53.8 °F 81% 30.10 in 10.0 mi WNW 8.1 mph - N/A   Clear
8:13 AM 60.8 °F 54.5 °F 80% 30.10 in 10.0 mi NW 4.6 mph - N/A   Clear
8:34 AM 62.8 °F 54.3 °F 74% 30.10 in 10.0 mi NNW 6.9 mph - N/A   Clear
8:54 AM 63.7 °F 54.1 °F 71% 30.10 in 10.0 mi NW 6.9 mph - N/A   Clear
9:13 AM 65.1 °F 54.5 °F 68% 30.10 in 10.0 mi NNW 9.2 mph - N/A   Clear
9:34 AM 66.9 °F 54.1 °F 63% 30.10 in 10.0 mi NNW 8.1 mph - N/A   Clear
9:54 AM 68.4 °F 54.3 °F 61% 30.10 in 10.0 mi NW 8.1 mph - N/A   Clear
10:13 AM 69.8 °F 54.0 °F 57% 30.10 in 10.0 mi NNW 8.1 mph - N/A   Clear
10:34 AM 70.5 °F 53.1 °F 54% 30.10 in 10.0 mi NNW 9.2 mph - N/A   Clear
10:53 AM 71.8 °F 50.5 °F 47% 30.10 in 10.0 mi North 8.1 mph - N/A   Clear
12:34 PM 73.9 °F 48.0 °F 40% 30.09 in 10.0 mi North 8.1 mph - N/A   Clear
12:53 PM 74.3 °F 46.9 °F 38% 30.08 in 10.0 mi NW 10.4 mph 16.1 mph N/A   Clear
1:14 PM 74.7 °F 45.9 °F 36% 30.08 in 10.0 mi WNW 11.5 mph 18.4 mph N/A   Clear
1:34 PM 75.2 °F 46.2 °F 36% 30.08 in 10.0 mi NW 9.2 mph - N/A   Clear
1:53 PM 75.7 °F 46.2 °F 35% 30.07 in 10.0 mi WNW 10.4 mph - N/A   Clear
2:14 PM 76.5 °F 45.5 °F 33% 30.07 in 10.0 mi NW 11.5 mph - N/A   Clear
2:34 PM 76.3 °F 47.8 °F 37% 30.07 in 10.0 mi NW 12.7 mph 19.6 mph N/A   Clear
2:53 PM 77.0 °F 47.5 °F 35% 30.06 in 10.0 mi NW 15.0 mph - N/A   Clear
3:34 PM 77.4 °F 48.4 °F 36% 30.05 in 10.0 mi NW 10.4 mph - N/A   Clear
3:53 PM 77.4 °F 48.9 °F 37% 30.04 in 10.0 mi NW 13.8 mph 18.4 mph N/A   Clear
4:14 PM 77.7 °F 49.5 °F 37% 30.04 in 10.0 mi WNW 13.8 mph 18.4 mph N/A   Clear
4:34 PM 77.9 °F 49.3 °F 37% 30.04 in 10.0 mi North 10.4 mph - N/A   Clear
4:53 PM 77.9 °F 48.6 °F 36% 30.04 in 10.0 mi NW 12.7 mph 17.3 mph N/A   Clear
5:14 PM 77.7 °F 48.9 °F 36% 30.03 in 10.0 mi NW 10.4 mph 18.4 mph N/A   Clear
5:33 PM 77.9 °F 50.0 °F 38% 30.03 in 10.0 mi WNW 9.2 mph 16.1 mph N/A   Clear
5:54 PM 77.4 °F 50.2 °F 38% 30.03 in 10.0 mi NNW 11.5 mph - N/A   Clear
6:14 PM 77.0 °F 51.1 °F 40% 30.03 in 10.0 mi WNW 8.1 mph - N/A   Scattered Clouds
6:54 PM 76.6 °F 52.0 °F 42% 30.03 in 10.0 mi WNW 9.2 mph - N/A   Clear
7:14 PM 76.1 °F 53.2 °F 45% 30.03 in 10.0 mi WNW 5.8 mph - N/A   Clear
7:33 PM 75.0 °F 54.1 °F 48% 30.02 in 10.0 mi WNW 6.9 mph - N/A   Clear
7:54 PM 73.2 °F 54.5 °F 52% 30.02 in 10.0 mi WNW 5.8 mph - N/A   Clear
8:13 PM 71.1 °F 55.9 °F 59% 30.03 in 10.0 mi WNW 4.6 mph - N/A   Clear
8:34 PM 69.8 °F 55.9 °F 61% 30.03 in 10.0 mi West 3.5 mph - N/A   Clear
8:54 PM 68.9 °F 55.6 °F 62% 30.03 in 10.0 mi Calm Calm - N/A   Clear
9:13 PM 68.7 °F 55.2 °F 62% 30.04 in 10.0 mi Calm Calm - N/A   Clear
9:53 PM 66.6 °F 55.9 °F 69% 30.04 in 10.0 mi WSW 3.5 mph - N/A   Clear
10:14 PM 66.6 °F 56.1 °F 69% 30.04 in 10.0 mi WSW 3.5 mph - N/A   Clear
10:34 PM 66.6 °F 56.5 °F 70% 30.05 in 10.0 mi West 3.5 mph - N/A   Clear
10:53 PM 65.5 °F 56.3 °F 72% 30.05 in 10.0 mi Calm Calm - N/A   Clear
11:14 PM 64.9 °F 56.1 °F 73% 30.05 in 10.0 mi Calm Calm - N/A   Clear
11:53 PM 65.7 °F 55.9 °F 71% 30.05 in 10.0 mi West 3.5 mph - N/A   Clear